Miscellaneous Local Product
Issued by NWS Hastings, NE

Home | Current Version | Previous Version | Graphics & Text | Print | Product List | Glossary On
Versions: 1 2 3 4 5 6 7 8 9 10 11 12 13 14 15 16 17 18 19 20 21 22 23 24 25 26 27 28 29 30 31 32 33 34 35 36 37 38 39 40 41 42 43 44 45 46 47 48 49 50
000
AXUS43 KGID 220802
MISGRI

GID CWA HOURLY WEATHER ROUNDUP
NATIONAL WEATHER SERVICE HASTINGS NE
300 AM CDT TUE JUL 22 2014

NOTE: "FAIR" INDICATES FEW OR NO CLOUDS BELOW 12,000 FEET WITH NO
SIGNIFICANT WEATHER AND/OR OBSTRUCTIONS TO VISIBILITY.

...SOUTH CENTRAL NEBRASKA...

CITY           SKY/WX    TMP DP  RH WIND       PRES   REMARKS
GRAND ISLAND   MOCLDY    83  70  64 SW15      29.96R
HASTINGS       MOCLDY    80  67  64 SW7       29.97R
KEARNEY        MOCLDY    81  64  57 SW10      29.98F
ORD            NOT AVBL
YORK           MOCLDY    81  73  78 SW12      29.94R
AURORA         MOCLDY    81  72  76 SW7       29.96R
LEXINGTON      CLEAR     72  64  76 W5        29.99S
HOLDREGE       PTCLDY    72  63  72 SW6       30.00S
HEBRON         CLEAR     80  68  66 S8        29.95F

...NEBRASKA PANHANDLE...

CITY           SKY/WX    TMP DP  RH WIND       PRES   REMARKS
CHADRON        PTCLDY    72  61  68 NE9       30.12R
ALLIANCE       PTCLDY    72  51  47 N3        30.10R
SCOTTSBLUFF    CLEAR     67  55  65 NE15      30.10R
SIDNEY         PTCLDY    73  51  46 S8        30.10F

...WESTERN AND NORTH CENTRAL NEBRASKA...

CITY           SKY/WX    TMP DP  RH WIND       PRES   REMARKS
VALENTINE      PTCLDY    76  64  66 N15G21    30.06R
AINSWORTH      PTCLDY    74  62  64 N10       30.01R
ONEILL         MOCLDY    78  63  58 NW28G38   29.97R
BROKEN BOW     PTCLDY    77  60  55 W7        29.97S
IMPERIAL       CLEAR     66  59  78 CALM      30.06S
NORTH PLATTE   MOCLDY    80  59  48 N5        30.00R
MCCOOK         CLEAR     75  64  68 W9        30.01F

...EASTERN NEBRASKA...

CITY           SKY/WX    TMP DP  RH WIND       PRES   REMARKS
NORFOLK        PTCLDY    78  72  81 W5        29.90S
SO SIOUX CITY  PTCLDY    82  74  76 W5        29.85R
TEKAMAH        MOCLDY    84  72  67 SE7       29.85F
COLUMBUS       CLOUDY    86  70  58 W10       29.91R HX  90
ALBION         PTCLDY    78  69  74 CALM      29.92F
OMAHA EPPLEY   CLOUDY    87  71  58 S5        29.88S HX  93
OFFUTT AFB     CLOUDY    82  76  83 S1        29.88F
MILLARD        CLOUDY    88  72  58 SW7       29.88F HX  94
LINCOLN        MOCLDY    85  70  60 S14       29.91F
NEBRASKA CITY  CLOUDY    81  72  73 W10       29.93R
BEATRICE       PTCLDY    75  69  80 CALM      29.95S
FALLS CITY     PTCLDY    79  73  82 SW9       29.93R

...NORTHERN KANSAS...

CITY           SKY/WX    TMP DP  RH WIND       PRES   REMARKS
GOODLAND       CLEAR     71  61  70 SW14      30.08F
HILL CITY      CLEAR     76  59  55 SW9       29.99F
NORTON         SUNNY     73  55  53 SW6       29.99F
PHILLIPSBURG   CLEAR     73  63  68 CALM      29.98F
SMITH CENTER   CLEAR     73  66  78 SE6       29.99S
HAYS           PTCLDY    73  59  60 W7        30.01S
RUSSELL        PTCLDY    73  69  87 SE8       29.99R
CONCORDIA      CLEAR     81  73  76 SW14      29.97R
SALINA         MOCLDY    82  73  74 S12       29.98R
TOPEKA         PTCLDY    81  75  82 VRB5      29.97S



USA.gov is the U.S. government's official web portal to all federal, state and local government web resources and services.